Flag for Argentina Weather past 2 weeks in Tucumán, Tucumán, Argentina

Now
86 °F

Passing clouds.


Feels Like: 87 °F
Forecast: 61 / 94 °F
Wind: 5 mph from East

Location: Tucuman Aerodrome

Current Time: Dec 25, 2014 at 2:08:23 PM

Latest Report: Dec 25, 2014 at 1:00 PM


Visibility: N/A

Pressure: 29.80 "Hg

Humidity: 46%

Dew point: 63 °F

Location of TucumánLocation

Historic Weather in Tucumán — Graph

°F

Tucumán temperature yesterday

Maximum temperature yesterday: 84 °F (at 3:00 PM)
Minimum temperature yesterday: 59 °F (at 5:00 AM)
Average temperature yesterday: 72 °F

Past Weeks' High & Low Weather Summary

 TemperatureHumidityPressure
High93 °F (Dec 19, 4:00 PM)100% (Dec 11, 4:00 AM)30.30 "Hg (Dec 11, 4:00 AM)
Low57 °F (Dec 21, 8:00 AM)32% (Dec 23, 5:00 PM)29.36 "Hg (Dec 20, 5:00 PM)
Average72 °F79%29.91 "Hg
* Reported Dec 10 1:00 PM — Dec 25 1:00 PM, Tucumán, Weather by CustomWeather, © 2014

Note: Actual official high and low records may vary slightly from our data, if they occured in-between our weather recording intervals... More about our weather records

Advertising

Tucumán weather history for previous 24 hours

 ConditionsComfort  
Time TempWeatherWind HumidityBarometerVisibility
1:00 PM
Dec 25
86 °FPassing clouds.5 mph46%29.80 "HgN/A
12:00 PM84 °FSunny.No wind48%29.83 "Hg10 mi
11:00 AM81 °FSunny.3 mph54%29.86 "Hg10 mi
10:00 AM79 °FSunny.6 mph58%29.86 "Hg10 mi
9:00 AM75 °FSunny.7 mph61%29.86 "Hg10 mi
8:00 AM72 °FSunny.7 mph65%29.86 "Hg10 mi
7:00 AM64 °FSunny.7 mph83%29.83 "Hg10 mi
5:00 AM64 °FClear.3 mph78%29.80 "Hg10 mi
4:00 AM64 °FClear.7 mph83%29.80 "Hg10 mi
3:00 AM68 °FClear.6 mph73%29.80 "Hg10 mi
11:00 PM
Dec 24
73 °FClear.7 mph69%29.86 "Hg10 mi
10:00 PM73 °FClear.No wind69%29.86 "Hg10 mi
8:00 PM81 °FPassing clouds.7 mph58%29.80 "HgN/A
7:00 PM82 °FPassing clouds.9 mph51%29.77 "HgN/A
6:00 PM84 °FSunny.12 mph51%29.77 "Hg10 mi
5:00 PM84 °FPassing clouds.9 mph51%29.77 "HgN/A
4:00 PM84 °FPassing clouds.9 mph51%29.80 "HgN/A
3:00 PM84 °FPassing clouds.6 mph48%29.80 "HgN/A
2:00 PM82 °FSunny.10 mph48%29.80 "Hg10 mi
Weather by CustomWeather, © 2014

See weather overviewHow to use our weather pages